Weather History for Arad, Romania

Change the Weather History Date:

Thursday, February 27, 2014

  Actual Average Record
Temperature  
Mean Temperature 44 °F -  
Max Temperature 57 °F 50 °F 64 °F (2008)
Min Temperature 30 °F 30 °F 14 °F (2001)
Degree Days  
Heating Degree Days 22    
Moisture  
Dew Point 39 °F    
Average Humidity 79    
Maximum Humidity 100    
Minimum Humidity 39    
Precipitation  
Precipitation 0.00 in - - ()
Sea Level Pressure  
Sea Level Pressure 30.17 in    
Wind  
Wind Speed 2 mph ()    
Max Wind Speed 7 mph    
Max Gust Speed -    
Visibility 6.2 miles    
Events Fog    
Averages and records for this station are not official NWS values.
T = Trace of Precipitation, MM = Missing Value Source: Averaged Metar Reports

Daily Weather History Graph

Daily Weather History Graph

Search for Another Location

Airport:

Trip Planner

Search our weather history database for the weather conditions in past years. The results will help you decide how hot, cold, wet, or windy it might be!

Date:

Astronomy

Feb. 27, 2014 Rise Set
Actual Time 7:18 AM EET 6:18 PM EET
Civil Twilight 6:47 AM EET 6:48 PM EET
Nautical Twilight 6:13 AM EET 7:22 PM EET
Astronomical Twilight 5:38 AM EET 7:57 PM EET
Moon 5:42 AM EET (2/27) 4:17 PM EET (2/27)
Length of Visible Light 12h 00m
Length of Day
10h 59m
Waning Crescent, 5% of the Moon is Illuminated
Feb 27
Waning Crescent
Mar 1
New
Mar 8
First Quarter
Mar 16
Full
Mar 24
Last Quarter

Hourly Weather History & Observations

Time (EET) Temp. Windchill Dew Point Humidity Pressure Visibility Wind Dir Wind Speed Gust Speed Precip Events Conditions
12:00 AM 34 °F - 33 °F 97% 30.23 in 2 mi Calm Calm - -   Mist
12:00 AM - - - N/A% 30.21 in 1.3 mi SE 2.3 mph - N/A   Mist
1:00 AM 34 °F - 34 °F 98% 30.23 in 2 mi Calm Calm - -   Mist
1:00 AM - - - N/A% 30.21 in 1.1 mi Calm Calm - N/A   Mist
2:00 AM 32 °F - 32 °F 99% 30.23 in 2 mi ESE 2.2 mph - -   Mist
2:00 AM - - - N/A% 30.18 in 1.6 mi SE 4.6 mph - N/A   Mist
3:00 AM 33 °F - 33 °F 99% 30.22 in 2 mi ESE 4.5 mph - -   Mist
3:00 AM - - - N/A% 30.18 in - SE 4.6 mph - N/A   Mist
4:00 AM 32 °F - 32 °F 98% 30.23 in 2 mi SE 2.2 mph - -   Mist
4:00 AM - - - N/A% 30.18 in 4.3 mi SE 6.9 mph - N/A   Unknown
5:00 AM 32 °F - 32 °F 99% 30.22 in 2 mi ESE 2.2 mph - -   Mist
5:00 AM - - - N/A% 30.18 in 4.3 mi SSE 4.6 mph - N/A   Unknown
6:00 AM 31 °F - 31 °F 100% 30.23 in 2 mi ESE 2.2 mph - -   Mist
6:00 AM 33.8 °F - 33.8 °F 100% 30.18 in - SSE 2.3 mph - N/A   Clear
6:30 AM 33.8 °F - 33.8 °F 100% 30.21 in - SSE 1.2 mph - N/A   Clear
7:00 AM 32 °F - 32 °F 98% 30.23 in 6 mi Calm Calm - -  
7:00 AM 32.0 °F - 32.0 °F 100% 30.21 in 6.2 mi SSE 1.2 mph - N/A Fog Shallow Fog
7:30 AM 32.0 °F - 32.0 °F 100% 30.21 in 6.2 mi SE 2.3 mph - N/A Fog Shallow Fog
8:00 AM 30 °F - 30 °F 100% 30.24 in 6 mi ESE 2.2 mph - -  
8:00 AM 33.8 °F - 33.8 °F 100% 30.21 in - SE 2.3 mph - N/A   Clear
8:30 AM 35.6 °F 32.8 °F 35.6 °F 100% 30.21 in - SE 3.5 mph - N/A   Clear
9:00 AM 35 °F - 34 °F 93% 30.24 in 6 mi ESE 4.5 mph - -   Clear
9:00 AM 37.4 °F 33.8 °F 37.4 °F 100% 30.21 in - SE 4.6 mph - N/A   Clear
9:30 AM 41.0 °F 38.0 °F 41.0 °F 100% 30.21 in - SE 4.6 mph - N/A   Clear
10:00 AM 41 °F - 38 °F 83% 30.25 in 6 mi ESE 4.5 mph - -   Clear
10:00 AM 44.6 °F 42.2 °F 41.0 °F 87% 30.21 in - SE 4.6 mph - N/A   Clear
10:30 AM 44.6 °F 41.4 °F 42.8 °F 93% 30.21 in - SE 5.8 mph - N/A   Clear
11:00 AM 46 °F - 41 °F 76% 30.23 in 12 mi ESE 4.5 mph - -   Clear
11:00 AM 48.2 °F - 44.6 °F 87% 30.21 in - SE 3.5 mph - N/A   Clear
11:30 AM 51.8 °F - 44.6 °F 76% 30.21 in - SSW 4.6 mph - N/A   Clear
12:00 PM 51 °F - 42 °F 61% 30.22 in 12 mi SE 2.2 mph - -   Clear
12:00 PM 53.6 °F - 44.6 °F 72% 30.21 in - Variable 2.3 mph - N/A   Clear
12:30 PM 51.8 °F - 42.8 °F 71% 30.18 in - Variable 2.3 mph - N/A   Clear
1:00 PM 54 °F - 40 °F 49% 30.21 in 12 mi Calm Calm - -   Clear
1:00 PM 53.6 °F - 42.8 °F 67% 30.18 in - Variable 4.6 mph - N/A   Clear
1:30 PM 53.6 °F - 42.8 °F 67% 30.18 in - Variable 3.5 mph - N/A   Clear
2:00 PM 55 °F - 39 °F 43% 30.18 in 12 mi Calm Calm - -   Scattered Clouds
2:00 PM 55.4 °F - 42.8 °F 63% 30.15 in - South 3.5 mph - N/A   Clear
2:30 PM 55.4 °F - 41.0 °F 58% 30.15 in - SSW 3.5 mph - N/A   Clear
3:00 PM 57 °F - 39 °F 39% 30.16 in 12 mi Calm Calm - -   Scattered Clouds
3:00 PM 55.4 °F - 41.0 °F 58% 30.15 in - South 3.5 mph - N/A   Clear
3:30 PM 55.4 °F - 41.0 °F 58% 30.12 in - SSW 3.5 mph - N/A   Clear
4:00 PM 55 °F - 39 °F 44% 30.15 in 12 mi West 2.2 mph - -   Partly Cloudy
4:00 PM 53.6 °F - 39.2 °F 58% 30.12 in - SSW 3.5 mph - N/A   Clear
4:30 PM 53.6 °F - 39.2 °F 58% 30.12 in - Variable 2.3 mph - N/A   Clear
5:00 PM 54 °F - 40 °F 47% 30.13 in 12 mi West 2.2 mph - -   Mostly Cloudy
5:00 PM 53.6 °F - 44.6 °F 72% 30.12 in - WSW 2.3 mph - N/A   Clear
5:30 PM 51.8 °F - 42.8 °F 71% 30.09 in - Calm Calm - N/A   Clear
6:00 PM 53 °F - 40 °F 49% 30.12 in 12 mi Calm Calm - -   Mostly Cloudy
6:00 PM 51.8 °F - 41.0 °F 67% 30.09 in - West 2.3 mph - N/A   Clear
6:30 PM 50.0 °F - 41.0 °F 71% 30.09 in - West 1.2 mph - N/A   Clear
7:00 PM 51 °F - 38 °F 50% 30.11 in 12 mi WSW 2.2 mph - -   Mostly Cloudy
7:00 PM 48.2 °F - 41.0 °F 76% 30.09 in - Calm Calm - N/A   Clear
7:30 PM 46.4 °F - 41.0 °F 81% 30.09 in - Calm Calm - N/A   Clear
8:00 PM 46 °F - 40 °F 71% 30.11 in 6 mi Calm Calm - -   Mostly Cloudy
8:00 PM 46.4 °F - 41.0 °F 81% 30.09 in - Calm Calm - N/A   Clear
8:30 PM 44.6 °F - 39.2 °F 81% 30.09 in - ESE 2.3 mph - N/A   Clear
9:00 PM 44 °F - 40 °F 82% 30.11 in 6 mi Calm Calm - -   Mostly Cloudy
9:00 PM 46.4 °F 45.2 °F 41.0 °F 81% 30.06 in - ESE 3.5 mph - N/A   Clear
9:30 PM 44.6 °F - 42.8 °F 93% 30.06 in - Calm Calm - N/A   Clear
10:00 PM 42 °F - 40 °F 89% 30.10 in 6 mi ESE 2.2 mph - -   Mostly Cloudy
10:00 PM 44.6 °F 43.1 °F 42.8 °F 93% 30.06 in - ESE 3.5 mph - N/A   Clear
11:00 PM 42 °F - 40 °F 91% 30.09 in 6 mi ESE 2.2 mph - -   Mostly Cloudy
11:00 PM 44.6 °F - 42.8 °F 93% 30.06 in 2.5 mi SE 2.3 mph - N/A   Mist